Weather History for Pardubice, Czech Republic

Change the Weather History Date:

Thursday, April 11, 2013

  Actual Average Record
Temperature  
Mean Temperature 50 °F -  
Max Temperature 59 °F - - ()
Min Temperature 41 °F - - ()
Degree Days  
Heating Degree Days 15    
Moisture  
Dew Point 40 °F    
Average Humidity 67    
Maximum Humidity 81    
Minimum Humidity 48    
Precipitation  
Precipitation 0.00 in - - ()
Sea Level Pressure  
Sea Level Pressure 29.75 in    
Wind  
Wind Speed 5 mph ()    
Max Wind Speed 14 mph    
Max Gust Speed 28 mph    
Visibility 6.2 miles    
Events Rain    
T = Trace of Precipitation, MM = Missing Value Source: Averaged Metar Reports

Daily Weather History Graph

Daily Weather History Graph

Search for Another Location

Airport:

Trip Planner

Search our weather history database for the weather conditions in past years. The results will help you decide how hot, cold, wet, or windy it might be!

Date:

Astronomy

Apr. 11, 2013 Rise Set
Actual Time 6:12 AM CEST 7:44 PM CEST
Civil Twilight 5:38 AM CEST 8:18 PM CEST
Nautical Twilight 4:57 AM CEST 8:59 PM CEST
Astronomical Twilight 4:12 AM CEST 9:45 PM CEST
Moon 6:26 AM CEST (4/11) 9:12 PM CEST (4/11)
Length of Visible Light 14h 39m
Length of Day
13h 32m
New Moon, 1% of the Moon is Illuminated
Apr 11
New Moon
Apr 18
First Quarter
Apr 25
Full
May 2
Last Quarter
May 10
New

Hourly Weather History & Observations

Time (CEST) Temp. Windchill Dew Point Humidity Pressure Visibility Wind Dir Wind Speed Gust Speed Precip Events Conditions
12:00 AM 42.8 °F 39.3 °F 37.4 °F 81% 29.83 in - SW 5.8 mph - N/A   Clear
1:00 AM 46.4 °F 42.9 °F 37.4 °F 71% 29.83 in - SW 6.9 mph - N/A   Clear
2:00 AM 44.6 °F 41.4 °F 37.4 °F 76% 29.83 in - South 5.8 mph - N/A   Clear
3:00 AM 42.8 °F - 37.4 °F 81% 29.83 in - Variable 1.2 mph - N/A   Clear
4:00 AM 41.0 °F - 35.6 °F 81% 29.83 in - Variable 1.2 mph - N/A   Clear
5:00 AM 44.6 °F 41.4 °F 37.4 °F 76% 29.83 in - WSW 5.8 mph - N/A   Clear
6:00 AM 44.6 °F - 37.4 °F 76% 29.80 in - Variable 2.3 mph - N/A   Clear
7:00 AM 42.8 °F - 37.4 °F 81% 29.80 in - Variable 1.2 mph - N/A   Clear
8:00 AM 44.6 °F - 39.2 °F 81% 29.80 in - Variable 1.2 mph - N/A   Clear
9:00 AM 48.2 °F - 39.2 °F 71% 29.80 in - ESE 6.9 mph - N/A   Clear
10:00 AM 50.0 °F - 39.2 °F 66% 29.77 in - ESE 6.9 mph - N/A   Clear
11:00 AM 53.6 °F - 37.4 °F 54% 29.77 in - South 4.6 mph - N/A   Clear
12:00 PM 55.4 °F - 37.4 °F 51% 29.74 in - WSW 8.1 mph - N/A   Clear
1:00 PM 57.2 °F - 39.2 °F 51% 29.74 in 6.2 mi SSW 9.2 mph - N/A   Mostly Cloudy
2:00 PM 57.2 °F - 37.4 °F 48% 29.74 in 6.2 mi SW 9.2 mph 27.6 mph N/A Rain Light Rain
3:00 PM 55.4 °F - 41.0 °F 58% 29.71 in 6.2 mi South 5.8 mph - N/A   Overcast
4:00 PM 59.0 °F - 39.2 °F 48% 29.68 in - SSW 13.8 mph 24.2 mph N/A   Clear
5:00 PM 59.0 °F - 41.0 °F 51% 29.68 in - SW 13.8 mph - N/A   Clear
6:00 PM 59.0 °F - 41.0 °F 51% 29.68 in - SW 10.4 mph - N/A   Clear
7:00 PM 57.2 °F - 44.6 °F 63% 29.68 in - SW 6.9 mph - N/A   Clear
8:02 PM 53.6 °F - 42.8 °F 67% 29.65 in 6.2 mi SSW 6.9 mph - N/A   Mostly Cloudy
9:00 PM 51.8 °F - 44.6 °F 76% 29.68 in - South 5.8 mph - N/A   Clear
10:00 PM 51.8 °F - 44.6 °F 76% 29.65 in - South 5.8 mph - N/A   Clear
11:00 PM 53.6 °F - 44.6 °F 72% 29.65 in - South 4.6 mph - N/A   Clear